User: anonymous   Login
Location: Unspecified
(0.0000°N, 0.0000°E)
Time: 03:55:02
(UTC+00:00)
Language:

SO-67 - Orbit

View from above orbital plane
View from above orbital plane
View from above satellite
View from above satellite

Ground track
Ground track

The orbit data is extracted from the following two-line orbital elements,

1 35870U 09049F   15243.73847128  .00006269  00000-0  14308-3 0  9992
2 35870  97.1350 258.5050 0001149  60.3644  57.9209 15.43227621331768
Epoch (UTC): 31 August 2015 17:43:23
Eccentricity: 0.0001149
inclination: 97.1350°
perigee height: 436 km
apogee height: 437 km
right ascension of ascending node: 258.5050°
argument of perigee: 60.3644°
revolutions per day: 15.43227621
mean anomaly at epoch: 57.9209°
orbit number at epoch: 33176

The dashed part of the orbit path shows where the satellite is in the earth's shadow,  

DLR